,,,PA_Meas_PMT16A,,PR_Meas_QMR101_102,,RH_Meas_QMH101,,SR_Meas_QMS101,,TA_Meas_QMH101,,GenWind,,GenWind,
date,time,status,PA,status,PR,status,RH,status,SR,status,TA,status,DirAvg,status,SpdAvg,
2008-12-13, 00:00:05,VALID,1001.72,VALID,0,VALID,75.7395,VALID,0,VALID,28.6144,VALID,256,VALID,1.34336,
2008-12-13, 00:01:05,VALID,1001.74,VALID,0,VALID,75.3123,VALID,0,VALID,28.5949,VALID,252,VALID,1.83477,
2008-12-13, 00:02:05,VALID,1001.71,VALID,0,VALID,75.5335,VALID,0,VALID,28.5949,VALID,271,VALID,0.961719,
2008-12-13, 00:03:05,VALID,1001.68,VALID,0,VALID,75.4878,VALID,0,VALID,28.6144,VALID,256,VALID,1.56484,
2008-12-13, 00:04:05,VALID,1001.65,VALID,0,VALID,75.8158,VALID,0,VALID,28.6144,VALID,305,VALID,1.27266,
2008-12-13, 00:05:05,VALID,1001.73,VALID,0,VALID,75.2589,VALID,0,VALID,28.6144,VALID,328,VALID,1.6957,
2008-12-13, 00:06:05,VALID,1001.74,VALID,0,VALID,74.9766,VALID,0,VALID,28.5169,VALID,342,VALID,1.43203,
2008-12-13, 00:07:05,VALID,1001.74,VALID,0,VALID,75.0987,VALID,0,VALID,28.322,VALID,297,VALID,1.54258,
2008-12-13, 00:08:05,VALID,1001.82,VALID,0,VALID,75.8845,VALID,0,VALID,28.1271,VALID,296,VALID,2.62344,
2008-12-13, 00:09:05,VALID,1001.86,VALID,0,VALID,76.2735,VALID,0,VALID,27.9711,VALID,279,VALID,2.12461,
2008-12-13, 00:10:05,VALID,1001.88,VALID,0,VALID,76.3117,VALID,0,VALID,27.8347,VALID,335,VALID,0.797266,
2008-12-13, 00:11:05,VALID,1001.93,VALID,0,VALID,75.9837,VALID,0,VALID,27.6593,VALID,291,VALID,1.61484,
2008-12-13, 00:12:05,VALID,1001.94,VALID,0,VALID,76.2507,VALID,0,VALID,27.5034,VALID,330,VALID,1.03477,
2008-12-13, 00:13:05,VALID,1001.9,VALID,0,VALID,76.0905,VALID,0,VALID,27.3454,VALID,296,VALID,2.63867,
2008-12-13, 00:14:05,VALID,1001.94,VALID,0,VALID,76.8915,VALID,0,VALID,27.1311,VALID,320,VALID,1.44961,
2008-12-13, 00:15:05,VALID,1001.99,VALID,0,VALID,77.456,VALID,0,VALID,26.9752,VALID,321,VALID,0.93125,
2008-12-13, 00:16:05,VALID,1002,VALID,0,VALID,77.4942,VALID,0,VALID,26.8778,VALID,306,VALID,2.21016,
2008-12-13, 00:17:05,VALID,1001.94,VALID,0,VALID,76.6779,VALID,0,VALID,26.7804,VALID,294,VALID,3.01758,
2008-12-13, 00:18:05,VALID,1001.97,VALID,0,VALID,77.1127,VALID,0,VALID,26.7024,VALID,320,VALID,2.82109,
2008-12-13, 00:19:05,VALID,1001.99,VALID,0,VALID,77.5552,VALID,0,VALID,26.603,VALID,300,VALID,1.2707,
2008-12-13, 00:20:05,VALID,1001.98,VALID,0,VALID,77.6696,VALID,0,VALID,26.5661,VALID,308,VALID,1.82617,
2008-12-13, 00:21:05,VALID,1001.95,VALID,0,VALID,78.1731,VALID,0,VALID,26.4687,VALID,345,VALID,2.0168,
2008-12-13, 00:22:05,VALID,1002.02,VALID,0,VALID,78.6232,VALID,0,VALID,26.3713,VALID,321,VALID,1.75781,
2008-12-13, 00:23:05,VALID,1001.98,VALID,0,VALID,79.4472,VALID,0,VALID,26.3108,VALID,296,VALID,1.15898,
2008-12-13, 00:24:05,VALID,1001.99,VALID,0,VALID,80.0651,VALID,0,VALID,26.2564,VALID,304,VALID,1.66016,
2008-12-13, 00:25:05,VALID,1001.98,VALID,0,VALID,80.0346,VALID,0,VALID,26.118,VALID,353,VALID,2.6707,
2008-12-13, 00:26:05,VALID,1001.99,VALID,0,VALID,80.1566,VALID,0,VALID,26.0206,VALID,354,VALID,1.38711,
2008-12-13, 00:27:05,VALID,1001.95,VALID,0,VALID,80.5228,VALID,0,VALID,25.9427,VALID,338,VALID,1.34531,
2008-12-13, 00:28:05,VALID,1001.95,VALID,0,VALID,80.3169,VALID,0,VALID,25.8259,VALID,323,VALID,2.83047,
2008-12-13, 00:29:05,VALID,1001.99,VALID,0,VALID,80.7212,VALID,0,VALID,25.746,VALID,293,VALID,2.19023,
2008-12-13, 00:30:05,VALID,1001.91,VALID,0,VALID,81.3467,VALID,0,VALID,25.7071,VALID,357,VALID,1.20703,
2008-12-13, 00:31:05,VALID,1001.86,VALID,0,VALID,80.9653,VALID,0.100563,VALID,25.6292,VALID,352,VALID,2.49375,
2008-12-13, 00:32:05,VALID,1001.85,VALID,0,VALID,81.4459,VALID,0,VALID,25.5921,VALID,306,VALID,0.602344,
2008-12-13, 00:33:05,VALID,1001.8,VALID,0,VALID,81.2399,VALID,0,VALID,25.5513,VALID,341,VALID,1.82617,
2008-12-13, 00:34:05,VALID,1001.77,VALID,0,VALID,82.0562,VALID,0.100563,VALID,25.5318,VALID,13,VALID,1.53906,
2008-12-13, 00:35:05,VALID,1001.73,VALID,0,VALID,82.3919,VALID,0,VALID,25.4753,VALID,352,VALID,2.05977,
2008-12-13, 00:36:05,VALID,1001.67,VALID,0,VALID,83.4065,VALID,0,VALID,25.3779,VALID,343,VALID,1.24258,
2008-12-13, 00:37:05,VALID,1001.63,VALID,0,VALID,84.1008,VALID,0,VALID,25.2592,VALID,347,VALID,1.24336,
2008-12-13, 00:38:05,VALID,1001.59,VALID,0,VALID,84.2534,VALID,0,VALID,25.1637,VALID,349,VALID,1.2875,
2008-12-13, 00:39:05,VALID,1001.53,VALID,0,VALID,84.6958,VALID,0,VALID,25.0663,VALID,356,VALID,1.31094,
2008-12-13, 00:40:05,VALID,1001.5,VALID,0,VALID,85.4663,VALID,0,VALID,25.0079,VALID,348,VALID,1.36563,
2008-12-13, 00:41:05,VALID,1001.46,VALID,0,VALID,85.8936,VALID,0,VALID,24.9495,VALID,342,VALID,1.00937,
2008-12-13, 00:42:05,VALID,1001.4,VALID,0,VALID,86.2445,VALID,0,VALID,24.8716,VALID,359,VALID,0.682422,
2008-12-13, 00:43:05,VALID,1001.43,VALID,0,VALID,86.3513,VALID,0,VALID,24.8327,VALID,346,VALID,0.944141,
2008-12-13, 00:44:05,VALID,1001.44,VALID,0,VALID,86.2292,VALID,0,VALID,24.7937,VALID,356,VALID,1.42188,
2008-12-13, 00:45:05,VALID,1001.43,VALID,0,VALID,86.5954,VALID,0,VALID,24.7548,VALID,6,VALID,1.27109,
2008-12-13, 00:46:05,VALID,1001.43,VALID,0,VALID,86.5268,VALID,0,VALID,24.7159,VALID,342,VALID,0.925391,
2008-12-13, 00:47:05,VALID,1001.41,VALID,0,VALID,86.6336,VALID,0,VALID,24.7353,VALID,340,VALID,1.07891,
2008-12-13, 00:48:05,VALID,1001.4,VALID,0,VALID,86.8624,VALID,0,VALID,24.6964,VALID,358,VALID,0.492578,
2008-12-13, 00:49:05,VALID,1001.38,VALID,0,VALID,86.6412,VALID,0,VALID,24.6983,VALID,2,VALID,1.88359,
2008-12-13, 00:50:05,VALID,1001.34,VALID,0,VALID,86.5115,VALID,0,VALID,24.6769,VALID,346,VALID,0.849219,
2008-12-13, 00:51:05,VALID,1001.37,VALID,0,VALID,86.3055,VALID,0,VALID,24.6769,VALID,5,VALID,1.49219,
2008-12-13, 00:52:05,VALID,1001.33,VALID,0,VALID,86.4352,VALID,0,VALID,24.6769,VALID,6,VALID,0.900781,
2008-12-13, 00:53:05,VALID,1001.33,VALID,0,VALID,86.1987,VALID,0,VALID,24.6769,VALID,352,VALID,1.45898,
2008-12-13, 00:54:05,VALID,1001.32,VALID,0,VALID,86.0538,VALID,0,VALID,24.6556,VALID,337,VALID,1.58867,
2008-12-13, 00:55:05,VALID,1001.33,VALID,0,VALID,86.1682,VALID,0,VALID,24.6769,VALID,351,VALID,1.45547,
2008-12-13, 00:56:05,VALID,1001.35,VALID,0,VALID,86.3284,VALID,0.100563,VALID,24.6556,VALID,327,VALID,1.02578,
2008-12-13, 00:57:05,VALID,1001.31,VALID,0,VALID,86.4352,VALID,0.100563,VALID,24.6556,VALID,357,VALID,0.898438,
2008-12-13, 00:58:05,VALID,1001.28,VALID,0,VALID,85.8096,VALID,0,VALID,24.6361,VALID,337,VALID,2.15937,
2008-12-13, 00:59:05,VALID,1001.24,VALID,0,VALID,86.1529,VALID,0,VALID,24.6769,VALID,347,VALID,0.694531,
2008-12-13, 01:00:05,VALID,1001.22,VALID,0,VALID,86.0233,VALID,0.100563,VALID,24.6574,VALID,355,VALID,1.26289,
2008-12-13, 01:01:05,VALID,1001.17,VALID,0,VALID,85.3824,VALID,0.100563,VALID,24.6361,VALID,323,VALID,1.3957,
2008-12-13, 01:02:05,VALID,1001.11,VALID,0,VALID,85.1993,VALID,0,VALID,24.675,VALID,355,VALID,2.11328,
2008-12-13, 01:03:05,VALID,1001.15,VALID,0,VALID,85.2985,VALID,0,VALID,24.6945,VALID,337,VALID,0.951953,
2008-12-13, 01:04:05,VALID,1001.15,VALID,0,VALID,85.4663,VALID,0.100563,VALID,24.7353,VALID,272,VALID,0.725,
2008-12-13, 01:05:05,VALID,1001.13,VALID,0,VALID,84.94,VALID,0.100563,VALID,24.7529,VALID,353,VALID,1.17852,
2008-12-13, 01:06:05,VALID,1001.11,VALID,0,VALID,84.8713,VALID,0,VALID,24.7529,VALID,343,VALID,1.04023,
2008-12-13, 01:07:05,VALID,1001.11,VALID,0,VALID,85.0773,VALID,0.100563,VALID,24.7724,VALID,277,VALID,0.862891,
2008-12-13, 01:08:05,VALID,1001.11,VALID,0,VALID,84.9476,VALID,0,VALID,24.7937,VALID,311,VALID,0.807422,
2008-12-13, 01:09:05,VALID,1001.09,VALID,0,VALID,85.1459,VALID,0,VALID,24.7743,VALID,349,VALID,1.25195,
2008-12-13, 01:10:05,VALID,1001.09,VALID,0,VALID,85.0773,VALID,0.100563,VALID,24.7548,VALID,337,VALID,0.820313,
2008-12-13, 01:11:05,VALID,1001.07,VALID,0,VALID,85.3672,VALID,0.100563,VALID,24.7335,VALID,353,VALID,1.19609,
2008-12-13, 01:12:05,VALID,1001.05,VALID,0,VALID,85.268,VALID,0.100563,VALID,24.7159,VALID,309,VALID,0.836719,
2008-12-13, 01:13:05,VALID,1001,VALID,0,VALID,85.001,VALID,0,VALID,24.675,VALID,342,VALID,1.72539,
2008-12-13, 01:14:05,VALID,1001,VALID,0,VALID,84.9552,VALID,0,VALID,24.6945,VALID,337,VALID,1.23438,
2008-12-13, 01:15:05,VALID,1001,VALID,0,VALID,84.9094,VALID,0,VALID,24.714,VALID,349,VALID,2.03359,
2008-12-13, 01:16:05,VALID,1000.96,VALID,0,VALID,84.7035,VALID,0.100563,VALID,24.714,VALID,341,VALID,1.39336,
2008-12-13, 01:17:05,VALID,1000.98,VALID,0,VALID,84.3449,VALID,0,VALID,24.7529,VALID,344,VALID,2.0082,
2008-12-13, 01:18:05,VALID,1000.96,VALID,0,VALID,84.467,VALID,0.100563,VALID,24.8522,VALID,304,VALID,0.699219,
2008-12-13, 01:19:05,VALID,1000.94,VALID,0,VALID,84.5509,VALID,0,VALID,24.8716,VALID,355,VALID,0.942969,
2008-12-13, 01:20:05,VALID,1000.92,VALID,0,VALID,84.0779,VALID,0.100563,VALID,24.8503,VALID,335,VALID,0.848828,
2008-12-13, 01:21:05,VALID,1000.88,VALID,0,VALID,83.8948,VALID,0,VALID,24.8697,VALID,344,VALID,1.0082,
2008-12-13, 01:22:05,VALID,1000.83,VALID,0,VALID,83.9329,VALID,0,VALID,24.8911,VALID,325,VALID,1.10898,
2008-12-13, 01:23:05,VALID,1000.84,VALID,0,VALID,83.9253,VALID,0,VALID,24.9087,VALID,349,VALID,1.1582,
2008-12-13, 01:24:05,VALID,1000.84,VALID,0,VALID,84.0779,VALID,0,VALID,24.9476,VALID,350,VALID,0.532422,
2008-12-13, 01:25:05,VALID,1000.8,VALID,0,VALID,84.1694,VALID,0,VALID,24.9671,VALID,360,VALID,0.541016,
2008-12-13, 01:26:05,VALID,1000.78,VALID,0,VALID,84.1694,VALID,0.100563,VALID,25.006,VALID,339,VALID,0.664844,
2008-12-13, 01:27:05,VALID,1000.74,VALID,0,VALID,83.8338,VALID,0,VALID,25.0255,VALID,334,VALID,1.04727,
2008-12-13, 01:28:05,VALID,1000.71,VALID,0,VALID,83.9329,VALID,0.100563,VALID,25.045,VALID,294,VALID,0.705469,
2008-12-13, 01:29:05,VALID,1000.71,VALID,0,VALID,83.9863,VALID,0.100563,VALID,25.0644,VALID,360,VALID,0.692578,
2008-12-13, 01:30:05,VALID,1000.71,VALID,0,VALID,84.0321,VALID,0.100563,VALID,25.045,VALID,346,VALID,1.0832,
2008-12-13, 01:31:05,VALID,1000.69,VALID,0,VALID,83.8643,VALID,0.100563,VALID,25.045,VALID,318,VALID,0.661328,
2008-12-13, 01:32:05,VALID,1000.75,VALID,0,VALID,83.6507,VALID,0.100563,VALID,25.0839,VALID,347,VALID,1.91562,
2008-12-13, 01:33:05,VALID,1000.75,VALID,0,VALID,83.7422,VALID,0.100563,VALID,25.1229,VALID,285,VALID,0.573438,
2008-12-13, 01:34:05,VALID,1000.76,VALID,0,VALID,83.6125,VALID,0.100563,VALID,25.1423,VALID,310,VALID,0.863281,
2008-12-13, 01:35:05,VALID,1000.74,VALID,0,VALID,83.788,VALID,0.100563,VALID,25.1832,VALID,239,VALID,0.489453,
2008-12-13, 01:36:05,VALID,1000.74,VALID,0,VALID,83.6736,VALID,0.100563,VALID,25.2007,VALID,347,VALID,1.4625,
2008-12-13, 01:37:05,VALID,1000.72,VALID,0,VALID,83.5057,VALID,0.100563,VALID,25.2397,VALID,343,VALID,0.977344,
2008-12-13, 01:38:05,VALID,1000.7,VALID,0,VALID,83.6125,VALID,0.100563,VALID,25.2786,VALID,299,VALID,0.589453,
2008-12-13, 01:39:05,VALID,1000.71,VALID,0,VALID,83.2082,VALID,0.100563,VALID,25.2981,VALID,351,VALID,1.08242,
2008-12-13, 01:40:05,VALID,1000.65,VALID,0,VALID,82.9641,VALID,0.100563,VALID,25.3176,VALID,322,VALID,0.623438,
2008-12-13, 01:41:05,VALID,1000.64,VALID,0,VALID,83.2692,VALID,0.100563,VALID,25.3176,VALID,2,VALID,0.544531,
2008-12-13, 01:42:05,VALID,1000.59,VALID,0,VALID,82.3919,VALID,0.100563,VALID,25.3176,VALID,349,VALID,0.996875,
2008-12-13, 01:43:05,VALID,1000.57,VALID,0,VALID,82.1783,VALID,0.100563,VALID,25.3565,VALID,312,VALID,0.217578,
2008-12-13, 01:44:05,VALID,1000.56,VALID,0,VALID,82.3004,VALID,0.100563,VALID,25.3955,VALID,306,VALID,0.330859,
2008-12-13, 01:45:05,VALID,1000.56,VALID,0,VALID,82.0333,VALID,0.100563,VALID,25.376,VALID,325,VALID,0.461328,
2008-12-13, 01:46:05,VALID,1000.57,VALID,0,VALID,81.835,VALID,0.100563,VALID,25.3955,VALID,326,VALID,0.381641,
2008-12-13, 01:47:05,VALID,1000.58,VALID,0,VALID,81.6061,VALID,0.100563,VALID,25.3741,VALID,349,VALID,0.639453,
2008-12-13, 01:48:05,VALID,1000.6,VALID,0,VALID,81.0111,VALID,0.100563,VALID,25.4149,VALID,345,VALID,1.38633,
2008-12-13, 01:49:05,VALID,1000.65,VALID,0,VALID,81.1865,VALID,0.100563,VALID,25.4539,VALID,291,VALID,0.358984,
2008-12-13, 01:50:05,VALID,1000.68,VALID,0,VALID,80.7746,VALID,0.100563,VALID,25.4539,VALID,280,VALID,0.426953,
2008-12-13, 01:51:05,VALID,1000.72,VALID,0,VALID,80.7364,VALID,0.100563,VALID,25.4539,VALID,348,VALID,0.832422,
2008-12-13, 01:52:05,VALID,1000.69,VALID,0,VALID,80.5686,VALID,0.100563,VALID,25.4734,VALID,341,VALID,1.59609,
2008-12-13, 01:53:05,VALID,1000.7,VALID,0,VALID,80.8966,VALID,0.100563,VALID,25.4928,VALID,5,VALID,1.21953,
2008-12-13, 01:54:05,VALID,1000.67,VALID,0,VALID,80.9958,VALID,0,VALID,25.5123,VALID,312,VALID,0.238281,
2008-12-13, 01:55:05,VALID,1000.67,VALID,0,VALID,81.1408,VALID,0,VALID,25.4948,VALID,286,VALID,0.567187,
2008-12-13, 01:56:05,VALID,1000.66,VALID,0,VALID,81.1255,VALID,0,VALID,25.4734,VALID,353,VALID,0.987109,
2008-12-13, 01:57:05,VALID,1000.63,VALID,0,VALID,81.4688,VALID,0,VALID,25.4558,VALID,311,VALID,0.428516,
2008-12-13, 01:58:05,VALID,1000.61,VALID,0,VALID,81.5451,VALID,0,VALID,25.4558,VALID,290,VALID,1.00352,
2008-12-13, 01:59:05,VALID,1000.58,VALID,0,VALID,81.5298,VALID,0,VALID,25.4344,VALID,275,VALID,0.422266,
2008-12-13, 02:00:05,VALID,1000.58,VALID,0,VALID,81.7129,VALID,0,VALID,25.4558,VALID,308,VALID,0.555469,
2008-12-13, 02:01:05,VALID,1000.57,VALID,0,VALID,81.8503,VALID,0,VALID,25.4558,VALID,314,VALID,0.665625,
2008-12-13, 02:02:05,VALID,1000.55,VALID,0,VALID,81.9418,VALID,0,VALID,25.4558,VALID,356,VALID,0.766406,
2008-12-13, 02:03:05,VALID,1000.55,VALID,0,VALID,82.0105,VALID,0,VALID,25.4344,VALID,306,VALID,0.792578,
2008-12-13, 02:04:05,VALID,1000.55,VALID,0,VALID,81.9113,VALID,0,VALID,25.4558,VALID,294,VALID,0.926562,
2008-12-13, 02:05:05,VALID,1000.55,VALID,0,VALID,82.1173,VALID,0,VALID,25.4772,VALID,273,VALID,0.757813,
2008-12-13, 02:06:05,VALID,1000.56,VALID,0,VALID,82.0028,VALID,0,VALID,25.4558,VALID,289,VALID,1.16523,
2008-12-13, 02:07:05,VALID,1000.51,VALID,0,VALID,82.0333,VALID,0,VALID,25.4363,VALID,260,VALID,0.469922,
2008-12-13, 02:08:05,VALID,1000.52,VALID,0,VALID,81.301,VALID,0,VALID,25.4772,VALID,327,VALID,1.23594,
2008-12-13, 02:09:05,VALID,1000.52,VALID,0,VALID,80.8966,VALID,0,VALID,25.5142,VALID,353,VALID,1.25117,
2008-12-13, 02:10:05,VALID,1000.53,VALID,0,VALID,81.034,VALID,0,VALID,25.5318,VALID,349,VALID,0.844922,
2008-12-13, 02:11:05,VALID,1000.49,VALID,0,VALID,80.8127,VALID,0,VALID,25.5727,VALID,332,VALID,1.27227,
2008-12-13, 02:12:05,VALID,1000.47,VALID,0,VALID,80.9043,VALID,0,VALID,25.6116,VALID,345,VALID,1.15234,
2008-12-13, 02:13:05,VALID,1000.44,VALID,0,VALID,80.5076,VALID,0,VALID,25.67,VALID,358,VALID,1.54531,
2008-12-13, 02:14:05,VALID,1000.42,VALID,0,VALID,80.6373,VALID,0,VALID,25.7285,VALID,348,VALID,1.49688,
2008-12-13, 02:15:05,VALID,1000.41,VALID,0,VALID,80.1948,VALID,0,VALID,25.7889,VALID,351,VALID,1.63867,
2008-12-13, 02:16:05,VALID,1000.37,VALID,0,VALID,80.4999,VALID,0,VALID,25.8064,VALID,268,VALID,0.333203,
2008-12-13, 02:17:05,VALID,1000.35,VALID,0,VALID,80.4923,VALID,0,VALID,25.8064,VALID,37,VALID,0.447656,
2008-12-13, 02:18:05,VALID,1000.33,VALID,0,VALID,80.294,VALID,0,VALID,25.8064,VALID,357,VALID,0.905859,
2008-12-13, 02:19:05,VALID,1000.3,VALID,0,VALID,80.355,VALID,0,VALID,25.8064,VALID,347,VALID,0.457422,
2008-12-13, 02:20:05,VALID,1000.28,VALID,0,VALID,80.1566,VALID,0,VALID,25.8064,VALID,350,VALID,1.25781,
2008-12-13, 02:21:05,VALID,1000.25,VALID,0,VALID,80.4237,VALID,0,VALID,25.8259,VALID,344,VALID,0.570313,
2008-12-13, 02:22:05,VALID,1000.22,VALID,0,VALID,80.561,VALID,0,VALID,25.8064,VALID,315,VALID,0.539844,
2008-12-13, 02:23:05,VALID,1000.21,VALID,0,VALID,80.7212,VALID,0,VALID,25.8064,VALID,329,VALID,0.448047,
2008-12-13, 02:24:05,VALID,1000.18,VALID,0,VALID,81.3773,VALID,0,VALID,25.8064,VALID,38,VALID,0.807813,
2008-12-13, 02:25:05,VALID,1000.15,VALID,0,VALID,81.4307,VALID,0,VALID,25.8259,VALID,2,VALID,1.11133,
2008-12-13, 02:26:05,VALID,1000.1,VALID,0,VALID,81.4154,VALID,0.100563,VALID,25.8259,VALID,342,VALID,1.03516,
2008-12-13, 02:27:05,VALID,1000.12,VALID,0,VALID,81.7511,VALID,0,VALID,25.8259,VALID,345,VALID,1.24219,
2008-12-13, 02:28:05,VALID,1000.12,VALID,0,VALID,81.9113,VALID,0,VALID,25.8259,VALID,354,VALID,0.481641,
2008-12-13, 02:29:05,VALID,1000.14,VALID,0,VALID,82.0028,VALID,0,VALID,25.8259,VALID,327,VALID,0.448828,
2008-12-13, 02:30:05,VALID,1000.13,VALID,0,VALID,81.7816,VALID,0,VALID,25.8259,VALID,317,VALID,0.625391,
2008-12-13, 02:31:05,VALID,1000.17,VALID,0,VALID,81.7663,VALID,0,VALID,25.8453,VALID,354,VALID,0.509766,
2008-12-13, 02:32:05,VALID,1000.17,VALID,0,VALID,82.369,VALID,0,VALID,25.8239,VALID,348,VALID,0.726563,
2008-12-13, 02:33:05,VALID,1000.19,VALID,0,VALID,82.1173,VALID,0,VALID,25.8648,VALID,344,VALID,0.671094,
2008-12-13, 02:34:05,VALID,1000.17,VALID,0,VALID,81.9037,VALID,0,VALID,25.8648,VALID,323,VALID,0.928906,
2008-12-13, 02:35:04,VALID,1000.18,VALID,0,VALID,82.1859,VALID,0,VALID,25.8863,VALID,349,VALID,0.402734,
2008-12-13, 02:36:04,VALID,1000.19,VALID,0,VALID,82.308,VALID,0,VALID,25.8843,VALID,356,VALID,1.05547,
2008-12-13, 02:37:04,VALID,1000.16,VALID,0,VALID,82.5521,VALID,0,VALID,25.8843,VALID,359,VALID,1.08516,
2008-12-13, 02:38:04,VALID,1000.11,VALID,0,VALID,82.5063,VALID,0,VALID,25.8843,VALID,338,VALID,1.10625,
2008-12-13, 02:39:04,VALID,1000.15,VALID,0,VALID,82.7276,VALID,0,VALID,25.9038,VALID,358,VALID,0.951953,
2008-12-13, 02:40:04,VALID,1000.13,VALID,0,VALID,82.9183,VALID,0,VALID,25.9038,VALID,335,VALID,0.551953,
2008-12-13, 02:41:04,VALID,1000.12,VALID,0,VALID,83.2235,VALID,0,VALID,25.9232,VALID,354,VALID,1.06523,
2008-12-13, 02:42:04,VALID,1000.1,VALID,0,VALID,83.1243,VALID,0,VALID,25.9427,VALID,348,VALID,0.967969,
2008-12-13, 02:43:04,VALID,1000.07,VALID,0,VALID,83.2769,VALID,0,VALID,25.9817,VALID,339,VALID,0.468359,
2008-12-13, 02:44:04,VALID,1000.07,VALID,0,VALID,83.1548,VALID,0,VALID,26.0012,VALID,354,VALID,1.16797,
2008-12-13, 02:45:04,VALID,1000.07,VALID,0,VALID,82.6589,VALID,0,VALID,26.0206,VALID,345,VALID,1.25234,
2008-12-13, 02:46:04,VALID,1000.05,VALID,0,VALID,82.8878,VALID,0,VALID,26.0206,VALID,349,VALID,0.952344,
2008-12-13, 02:47:04,VALID,1000.04,VALID,0,VALID,82.8725,VALID,0,VALID,26.0206,VALID,356,VALID,0.898438,
2008-12-13, 02:48:04,VALID,1000.06,VALID,0,VALID,83.2616,VALID,0,VALID,26.0401,VALID,344,VALID,0.675391,
2008-12-13, 02:49:04,VALID,1000.04,VALID,0,VALID,82.8115,VALID,0,VALID,26.0401,VALID,348,VALID,1.0125,
2008-12-13, 02:50:04,VALID,1000.02,VALID,0,VALID,82.9259,VALID,0,VALID,26.0401,VALID,340,VALID,0.899609,
2008-12-13, 02:51:04,VALID,1000.01,VALID,0,VALID,82.9107,VALID,0,VALID,26.0421,VALID,345,VALID,1.28437,
2008-12-13, 02:52:04,VALID,1000.01,VALID,0,VALID,82.9107,VALID,0,VALID,25.9817,VALID,351,VALID,0.876172,
2008-12-13, 02:53:04,VALID,1000.04,VALID,0,VALID,82.9641,VALID,0,VALID,25.9622,VALID,1,VALID,0.658594,
2008-12-13, 02:54:04,VALID,1000.08,VALID,0,VALID,83.0861,VALID,0,VALID,25.9427,VALID,338,VALID,0.143359,
2008-12-13, 02:55:04,VALID,1000.1,VALID,0,VALID,82.6589,VALID,0.100563,VALID,25.9232,VALID,338,VALID,0.715625,
2008-12-13, 02:56:04,VALID,1000.09,VALID,0,VALID,82.7734,VALID,0,VALID,25.8843,VALID,345,VALID,1.00547,
2008-12-13, 02:57:04,VALID,1000.08,VALID,0,VALID,82.8802,VALID,0,VALID,25.8648,VALID,353,VALID,0.935156,
2008-12-13, 02:58:04,VALID,1000.06,VALID,0,VALID,83.1319,VALID,0.100563,VALID,25.8453,VALID,346,VALID,0.999219,
2008-12-13, 02:59:04,VALID,1000.05,VALID,0,VALID,83.1014,VALID,0,VALID,25.8064,VALID,346,VALID,0.640625,
2008-12-13, 03:00:04,VALID,1000.04,VALID,0,VALID,83.4752,VALID,0,VALID,25.7674,VALID,319,VALID,0.838281,
2008-12-13, 03:01:04,VALID,1000.01,VALID,0,VALID,83.6354,VALID,0.100563,VALID,25.7674,VALID,355,VALID,0.689453,
2008-12-13, 03:02:04,VALID,999.992,VALID,0,VALID,83.9024,VALID,0,VALID,25.7071,VALID,353,VALID,0.183984,
2008-12-13, 03:03:04,VALID,1000,VALID,0,VALID,84.3678,VALID,0,VALID,25.7285,VALID,282,VALID,0.0246094,
2008-12-13, 03:04:04,VALID,1000.05,VALID,0,VALID,84.6119,VALID,0,VALID,25.709,VALID,322,VALID,0.479297,
2008-12-13, 03:05:04,VALID,1000.08,VALID,0,VALID,84.8942,VALID,0,VALID,25.709,VALID,284,VALID,0.947266,
2008-12-13, 03:06:04,VALID,1000.13,VALID,0,VALID,84.8866,VALID,0,VALID,25.7304,VALID,269,VALID,1.15469,
2008-12-13, 03:07:04,VALID,1000.13,VALID,0,VALID,84.9247,VALID,0.100563,VALID,25.748,VALID,327,VALID,0.103516,
2008-12-13, 03:08:04,VALID,1000.16,VALID,0,VALID,85.1841,VALID,0,VALID,25.7674,VALID,334,VALID,0,
2008-12-13, 03:09:04,VALID,1000.21,VALID,0,VALID,85.0696,VALID,0,VALID,25.7674,VALID,308,VALID,0.274609,
2008-12-13, 03:10:04,VALID,1000.23,VALID,0,VALID,84.8484,VALID,0,VALID,25.7674,VALID,342,VALID,1.06055,
2008-12-13, 03:11:04,VALID,1000.27,VALID,0,VALID,85.2299,VALID,0,VALID,25.7674,VALID,317,VALID,0.298047,
2008-12-13, 03:12:04,VALID,1000.28,VALID,0,VALID,84.8713,VALID,0,VALID,25.7674,VALID,279,VALID,0.891406,
2008-12-13, 03:13:04,VALID,1000.32,VALID,0,VALID,85.1688,VALID,0,VALID,25.7674,VALID,17,VALID,0.301953,
2008-12-13, 03:14:04,VALID,1000.38,VALID,0,VALID,85.2451,VALID,0,VALID,25.748,VALID,286,VALID,0.521875,
2008-12-13, 03:15:04,VALID,1000.39,VALID,0,VALID,85.1688,VALID,0,VALID,25.7674,VALID,351,VALID,0.691406,
2008-12-13, 03:16:04,VALID,1000.39,VALID,0,VALID,84.9476,VALID,0,VALID,25.7674,VALID,354,VALID,1.76641,
2008-12-13, 03:17:04,VALID,1000.41,VALID,0,VALID,85.2604,VALID,0,VALID,25.7674,VALID,348,VALID,0.876172,
2008-12-13, 03:18:04,VALID,1000.43,VALID,0,VALID,85.2833,VALID,0,VALID,25.7674,VALID,342,VALID,0.70625,
2008-12-13, 03:19:04,VALID,1000.45,VALID,0,VALID,85.3672,VALID,0,VALID,25.748,VALID,21,VALID,0.547656,
2008-12-13, 03:20:04,VALID,1000.45,VALID,0,VALID,85.4282,VALID,0,VALID,25.748,VALID,45,VALID,0.313672,
2008-12-13, 03:21:04,VALID,1000.47,VALID,0,VALID,85.5732,VALID,0,VALID,25.748,VALID,81,VALID,0.405078,
2008-12-13, 03:22:04,VALID,1000.48,VALID,0,VALID,85.5426,VALID,0,VALID,25.746,VALID,9,VALID,0.242188,
2008-12-13, 03:23:04,VALID,1000.51,VALID,0,VALID,85.5732,VALID,0,VALID,25.8083,VALID,76,VALID,0.282422,
2008-12-13, 03:24:04,VALID,1000.57,VALID,0,VALID,85.4892,VALID,0,VALID,25.8083,VALID,78,VALID,0.028125,
2008-12-13, 03:25:04,VALID,1000.57,VALID,0,VALID,85.4435,VALID,0,VALID,25.785,VALID,98,VALID,0,
2008-12-13, 03:26:04,VALID,1000.57,VALID,0,VALID,85.7562,VALID,0,VALID,25.8064,VALID,57,VALID,0.184766,
2008-12-13, 03:27:04,VALID,1000.61,VALID,0,VALID,85.9241,VALID,0,VALID,25.8064,VALID,51,VALID,0.358594,
2008-12-13, 03:28:04,VALID,1000.65,VALID,0,VALID,85.8554,VALID,0,VALID,25.8064,VALID,51,VALID,0,
2008-12-13, 03:29:04,VALID,1000.69,VALID,0,VALID,85.9393,VALID,0,VALID,25.8278,VALID,40,VALID,0.0851562,
2008-12-13, 03:30:04,VALID,1000.69,VALID,0,VALID,85.9165,VALID,0,VALID,25.8278,VALID,314,VALID,0.0546875,
2008-12-13, 03:31:04,VALID,1000.72,VALID,0,VALID,86.214,VALID,0,VALID,25.8259,VALID,314,VALID,0.144922,
2008-12-13, 03:32:04,VALID,1000.73,VALID,0,VALID,86.2598,VALID,0,VALID,25.8259,VALID,314,VALID,0.113672,
2008-12-13, 03:33:04,VALID,1000.79,VALID,0,VALID,86.4352,VALID,0,VALID,25.8259,VALID,314,VALID,0.157422,
2008-12-13, 03:34:04,VALID,1000.79,VALID,0,VALID,86.2903,VALID,0,VALID,25.8064,VALID,260,VALID,0.159766,
2008-12-13, 03:35:04,VALID,1000.77,VALID,0,VALID,86.2292,VALID,0,VALID,25.8044,VALID,50,VALID,0.646875,
2008-12-13, 03:36:04,VALID,1000.78,VALID,0,VALID,86.0004,VALID,0,VALID,25.8259,VALID,29,VALID,0.690625,
2008-12-13, 03:37:04,VALID,1000.78,VALID,0,VALID,86.0538,VALID,0,VALID,25.8259,VALID,29,VALID,0.199609,
2008-12-13, 03:38:04,VALID,1000.77,VALID,0,VALID,86.0461,VALID,0,VALID,25.8648,VALID,21,VALID,0.216406,
2008-12-13, 03:39:04,VALID,1000.73,VALID,0,VALID,86.2216,VALID,0,VALID,25.9057,VALID,21,VALID,0,
2008-12-13, 03:40:04,VALID,1000.71,VALID,0,VALID,86.3742,VALID,0,VALID,25.9038,VALID,21,VALID,0,
2008-12-13, 03:41:04,VALID,1000.73,VALID,0,VALID,86.4276,VALID,0,VALID,25.8843,VALID,21,VALID,0,
2008-12-13, 03:42:04,VALID,1000.73,VALID,0,VALID,86.5573,VALID,0,VALID,25.9057,VALID,21,VALID,0,